Location: Newark
(58.8333°N, 23.5833°E)
Time: 03:48:16
(UTC+00:00)

Tiros 1 despin weight - Pass Details

Date: 21 November 2019
Orbit: 594 x 642 km, 48.2° (Epoch: 10 December)

Event Time Altitude Azimuth Distance (km) Brightness Sun altitude
Rises 11:30:04 0° 211° (SSW) 2,823 ? 9.6°
Reaches altitude 10° 11:33:23 10° 184° (S) 1,926 ? 9.5°
Maximum altitude 11:35:31 13° 155° (SSE) 1,716 ? 9.4°
Drops below altitude 10° 11:37:40 10° 126° (SE) 1,936 ? 9.3°
Sets 11:41:01 0° 100° (E) 2,849 ? 9.1°
